Location: St. Louis
(38.6270°N, 90.1994°W)
Time: 08:26:44
(UTC-06:00)

SR - Pass Details

Date: 03 December 2021
Orbit: 582 x 872 km, 66.7° (Epoch: 21 January)

Event Time Altitude Azimuth Distance (km) Brightness Sun altitude
Rises 08:01:24 0° 338° (NNW) 2,826 ? 8.9°
Reaches altitude 10° 08:03:43 10° 346° (NNW) 1,940 ? 9.3°
Maximum altitude 08:07:49 40° 57° (ENE) 908 ? 9.9°
Drops below altitude 10° 08:12:08 10° 128° (SE) 2,044 ? 10.5°
Sets 08:14:37 0° 135° (SE) 2,998 ? 10.9°
